ZIYUAN 3-2 (ZY 3-2) (41556 NORAD) Tracking and Keplerian Element Data

This shows tracking and keplerian element data for the satellite.

Feedback or suggestion? Click here.




ElementValue
Catalog41556
NameZIYUAN 3-2 (ZY 3-2)
Epoch Orbit16039
Epoch Day110.07799863
Epoch Year2019
RAAN188.3369
Inclination97.3993
Eccentricity0.000386
Argument of Perigee76.2587
Mean Anonmoly41.6025
Mean Motion15.21296602
Decay Rate6.1E-06
L11 41556U 16033A 19110.07799863 .00000610 00000-0 30329-4 0 9993
L22 41556 97.3993 188.3369 0003860 76.2587 41.6025 15.21296602160394

Live tracking and technical data element details for ZIYUAN 3-2 (ZY 3-2) (NORAD 41556). ZIYUAN 3-2 (ZY 3-2) can be tracked NOW for your location showing map with azimuth and elevation plus other details from your city location.

Track the satellite on the map from your city or location and see movement details for azimuth, elevation, latitude, longitude, range, height, and movement on the map or in text.







IsCatalogInMostPopularTable: catalog: 41556, numindb: 227
Update: records affected: 1



GetName: 41556 ZIYUAN 3-2 (ZY 3-2)

Hit Count: updated at: Sat, 20 Apr 2019 20:28:48 GMT